Time,TemperatureF,DewpointF,PressureIn,WindDirection,WindDirectionDegrees,WindSpeedMPH,WindSpeedGustMPH,Humidity,HourlyPrecipIn,Conditions,Clouds,dailyrainin,SoftwareType,DateUTC
2013-01-17 00:01:00,30.7,27.3,29.76,WSW,239,4.0,7.0,87,0.00,,,0.00,meteohub,2013-01-17 05:01:00,
2013-01-17 00:02:00,30.7,27.3,29.76,SSW,211,7.0,7.0,87,0.00,,,0.00,meteohub,2013-01-17 05:02:00,
2013-01-17 00:03:00,30.7,27.3,29.76,SW,236,3.0,7.0,87,0.00,,,0.00,meteohub,2013-01-17 05:03:00,
2013-01-17 00:05:00,30.9,27.5,29.76,SW,232,1.0,7.0,87,0.00,,,0.00,meteohub,2013-01-17 05:05:00,
2013-01-17 00:11:00,30.9,27.1,29.76,SE,143,2.0,7.0,86,0.00,,,0.00,meteohub,2013-01-17 05:11:00,
2013-01-17 00:16:00,31.3,27.5,29.75,SSW,198,4.0,9.0,86,0.00,,,0.00,meteohub,2013-01-17 05:16:00,
2013-01-17 00:21:00,31.3,27.3,29.75,SW,219,2.0,10.0,85,0.00,,,0.00,meteohub,2013-01-17 05:21:00,
2013-01-17 00:26:00,31.5,27.5,29.75,SSW,210,4.0,10.0,85,0.00,,,0.00,meteohub,2013-01-17 05:26:00,
2013-01-17 00:31:00,31.5,27.5,29.75,SW,224,3.0,10.0,85,0.00,,,0.00,meteohub,2013-01-17 05:31:00,
2013-01-17 00:36:00,31.5,27.5,29.75,South,185,2.0,7.0,85,0.00,,,0.00,meteohub,2013-01-17 05:36:00,
2013-01-17 00:41:00,31.5,27.5,29.75,SSE,167,4.0,7.0,85,0.00,,,0.00,meteohub,2013-01-17 05:41:00,
2013-01-17 00:46:00,31.5,27.5,29.75,SW,225,5.0,7.0,85,0.00,,,0.00,meteohub,2013-01-17 05:46:00,
2013-01-17 00:52:00,31.5,27.5,29.75,South,180,4.0,7.0,85,0.00,,,0.00,meteohub,2013-01-17 05:52:00,
2013-01-17 00:57:00,31.5,27.5,29.75,SSW,201,4.0,7.0,85,0.00,,,0.00,meteohub,2013-01-17 05:57:00,
2013-01-17 01:02:00,31.5,27.5,29.75,SSE,149,3.0,8.0,85,0.00,,,0.00,meteohub,2013-01-17 06:02:00,
2013-01-17 01:07:00,31.3,27.3,29.75,SSW,201,2.0,8.0,85,0.00,,,0.00,meteohub,2013-01-17 06:07:00,
2013-01-17 01:12:00,31.3,27.3,29.75,SW,231,0.0,6.0,85,0.00,,,0.00,meteohub,2013-01-17 06:12:00,
2013-01-17 01:17:00,31.3,27.3,29.75,South,174,2.0,8.0,85,0.00,,,0.00,meteohub,2013-01-17 06:17:00,
2013-01-17 01:22:00,31.3,27.3,29.75,SSE,165,4.0,8.0,85,0.00,,,0.00,meteohub,2013-01-17 06:22:00,
2013-01-17 01:27:00,31.3,27.3,29.75,South,188,6.0,8.0,85,0.00,,,0.00,meteohub,2013-01-17 06:27:00,
2013-01-17 01:32:00,31.3,27.3,29.75,SW,226,1.0,8.0,85,0.00,,,0.00,meteohub,2013-01-17 06:32:00,
2013-01-17 01:37:00,31.3,27.3,29.75,WSW,242,2.0,8.0,85,0.00,,,0.00,meteohub,2013-01-17 06:37:00,
2013-01-17 01:42:00,31.5,27.1,29.75,SW,219,3.0,8.0,84,0.00,,,0.00,meteohub,2013-01-17 06:42:00,
2013-01-17 01:47:00,31.5,27.1,29.75,SW,233,10.0,10.0,84,0.00,,,0.00,meteohub,2013-01-17 06:47:00,
2013-01-17 01:52:00,31.6,27.3,29.75,SW,214,4.0,10.0,84,0.00,,,0.00,meteohub,2013-01-17 06:52:00,
2013-01-17 01:57:00,31.6,27.3,29.75,SSW,211,8.0,14.0,84,0.00,,,0.00,meteohub,2013-01-17 06:57:00,
2013-01-17 02:02:00,31.6,27.3,29.75,WSW,257,7.0,14.0,84,0.00,,,0.00,meteohub,2013-01-17 07:02:00,
2013-01-17 02:07:00,31.6,27.3,29.76,SW,232,3.0,14.0,84,0.00,,,0.00,meteohub,2013-01-17 07:07:00,
2013-01-17 02:12:00,31.6,27.3,29.76,SSE,158,5.0,11.0,84,0.00,,,0.00,meteohub,2013-01-17 07:12:00,
2013-01-17 02:17:00,31.6,27.3,29.75,SSW,193,4.0,11.0,84,0.00,,,0.00,meteohub,2013-01-17 07:17:00,
2013-01-17 02:22:00,31.5,27.1,29.75,SW,232,8.0,11.0,84,0.00,,,0.00,meteohub,2013-01-17 07:22:00,
2013-01-17 02:27:00,31.5,27.5,29.76,SSE,149,6.0,13.0,85,0.00,,,0.00,meteohub,2013-01-17 07:27:00,
2013-01-17 02:32:00,31.3,27.3,29.76,SSW,210,2.0,13.0,85,0.00,,,0.00,meteohub,2013-01-17 07:32:00,
2013-01-17 02:37:00,31.1,27.3,29.76,ESE,120,3.0,10.0,86,0.00,,,0.00,meteohub,2013-01-17 07:37:00,
2013-01-17 02:42:00,30.9,27.1,29.76,WSW,238,4.0,9.0,86,0.00,,,0.00,meteohub,2013-01-17 07:42:00,
2013-01-17 02:47:00,30.7,27.3,29.77,SSW,195,8.0,11.0,87,0.00,,,0.00,meteohub,2013-01-17 07:47:00,
2013-01-17 02:52:00,30.7,27.3,29.76,SSW,200,6.0,11.0,87,0.00,,,0.00,meteohub,2013-01-17 07:52:00,
2013-01-17 02:57:00,30.7,27.3,29.76,WSW,243,4.0,11.0,87,0.00,,,0.00,meteohub,2013-01-17 07:57:00,
2013-01-17 03:02:00,30.7,27.3,29.77,SE,146,3.0,10.0,87,0.00,,,0.00,meteohub,2013-01-17 08:02:00,
2013-01-17 03:07:00,30.7,27.3,29.76,WSW,242,4.0,12.0,87,0.00,,,0.00,meteohub,2013-01-17 08:07:00,
2013-01-17 03:12:00,30.7,27.3,29.76,SW,215,7.0,12.0,87,0.00,,,0.00,meteohub,2013-01-17 08:12:00,
2013-01-17 03:17:00,30.7,27.3,29.77,ESE,120,6.0,12.0,87,0.00,,,0.00,meteohub,2013-01-17 08:17:00,
2013-01-17 03:22:00,30.7,27.3,29.77,WSW,240,8.0,9.0,87,0.00,,,0.00,meteohub,2013-01-17 08:22:00,
2013-01-17 03:27:00,30.9,27.5,29.77,SSE,162,7.0,11.0,87,0.00,,,0.00,meteohub,2013-01-17 08:27:00,
2013-01-17 03:32:00,30.9,27.5,29.76,SW,225,3.0,11.0,87,0.00,,,0.00,meteohub,2013-01-17 08:32:00,
2013-01-17 03:37:00,30.9,27.5,29.76,SSW,203,5.0,11.0,87,0.00,,,0.00,meteohub,2013-01-17 08:37:00,
2013-01-17 03:42:00,30.9,27.5,29.76,SSW,198,5.0,10.0,87,0.00,,,0.00,meteohub,2013-01-17 08:42:00,
2013-01-17 03:47:00,30.9,27.5,29.77,SSE,153,4.0,11.0,87,0.00,,,0.00,meteohub,2013-01-17 08:47:00,
2013-01-17 03:52:00,30.9,27.5,29.77,SSW,192,2.0,11.0,87,0.00,,,0.00,meteohub,2013-01-17 08:52:00,
2013-01-17 03:57:00,30.9,27.5,29.77,WSW,254,2.0,11.0,87,0.00,,,0.00,meteohub,2013-01-17 08:57:00,
2013-01-17 04:02:00,30.9,27.5,29.77,SSW,200,2.0,9.0,87,0.00,,,0.00,meteohub,2013-01-17 09:02:00,
2013-01-17 04:07:00,30.9,27.5,29.77,SSW,200,5.0,9.0,87,0.00,,,0.00,meteohub,2013-01-17 09:07:00,
2013-01-17 04:12:00,30.9,27.5,29.76,SE,131,2.0,8.0,87,0.00,,,0.00,meteohub,2013-01-17 09:12:00,
2013-01-17 04:17:00,31.1,27.7,29.76,SW,228,2.0,8.0,87,0.00,,,0.00,meteohub,2013-01-17 09:17:00,
2013-01-17 04:22:00,31.1,27.7,29.76,SE,127,3.0,7.0,87,0.00,,,0.00,meteohub,2013-01-17 09:22:00,
2013-01-17 04:27:00,31.1,27.7,29.76,SSW,198,2.0,6.0,87,0.00,,,0.00,meteohub,2013-01-17 09:27:00,
2013-01-17 04:32:00,31.1,27.7,29.76,ESE,116,2.0,6.0,87,0.00,,,0.00,meteohub,2013-01-17 09:32:00,
2013-01-17 04:37:00,31.3,27.5,29.76,SSW,192,5.0,7.0,86,0.00,,,0.00,meteohub,2013-01-17 09:37:00,
2013-01-17 04:42:00,31.3,27.5,29.76,ESE,115,0.0,8.0,86,0.00,,,0.00,meteohub,2013-01-17 09:42:00,
2013-01-17 04:47:00,31.5,27.5,29.76,SSW,210,0.0,8.0,85,0.00,,,0.00,meteohub,2013-01-17 09:47:00,
2013-01-17 04:52:00,31.5,27.5,29.76,West,268,1.0,8.0,85,0.00,,,0.00,meteohub,2013-01-17 09:52:00,
2013-01-17 04:57:00,31.5,27.5,29.76,SSW,197,3.0,7.0,85,0.00,,,0.00,meteohub,2013-01-17 09:57:00,
2013-01-17 05:02:00,31.5,27.5,29.77,SSW,206,1.0,5.0,85,0.00,,,0.00,meteohub,2013-01-17 10:02:00,
2013-01-17 05:07:00,31.5,27.5,29.77,WSW,256,1.0,7.0,85,0.00,,,0.00,meteohub,2013-01-17 10:07:00,
2013-01-17 05:12:00,31.5,27.5,29.77,SSW,208,0.0,7.0,85,0.00,,,0.00,meteohub,2013-01-17 10:12:00,
2013-01-17 05:17:00,31.5,27.7,29.78,WSW,240,0.0,6.0,86,0.00,,,0.00,meteohub,2013-01-17 10:17:00,
2013-01-17 05:22:00,31.3,27.5,29.78,WSW,239,0.0,6.0,86,0.00,,,0.00,meteohub,2013-01-17 10:22:00,
2013-01-17 05:27:00,31.3,27.5,29.78,SSW,195,2.0,6.0,86,0.00,,,0.00,meteohub,2013-01-17 10:27:00,
2013-01-17 05:32:00,31.3,27.5,29.78,SSE,160,1.0,5.0,86,0.00,,,0.00,meteohub,2013-01-17 10:32:00,
2013-01-17 05:37:00,31.1,27.3,29.78,WSW,238,0.0,5.0,86,0.00,,,0.00,meteohub,2013-01-17 10:37:00,
2013-01-17 05:42:00,31.3,27.5,29.78,SW,235,4.0,5.0,86,0.00,,,0.00,meteohub,2013-01-17 10:42:00,
2013-01-17 05:47:00,31.3,27.5,29.78,SW,226,3.0,6.0,86,0.00,,,0.00,meteohub,2013-01-17 10:47:00,
2013-01-17 05:52:00,31.5,27.7,29.79,West,277,0.0,6.0,86,0.00,,,0.00,meteohub,2013-01-17 10:52:00,
2013-01-17 05:57:00,31.5,27.7,29.79,SW,226,4.0,6.0,86,0.00,,,0.00,meteohub,2013-01-17 10:57:00,
2013-01-17 06:02:00,31.5,27.5,29.79,West,264,3.0,6.0,85,0.00,,,0.00,meteohub,2013-01-17 11:02:00,
2013-01-17 06:07:00,31.6,27.7,29.79,SE,142,4.0,6.0,85,0.00,,,0.00,meteohub,2013-01-17 11:07:00,
2013-01-17 06:12:00,31.6,27.7,29.79,SSE,163,4.0,6.0,85,0.00,,,0.00,meteohub,2013-01-17 11:12:00,
2013-01-17 06:17:00,31.6,27.7,29.79,SSE,167,3.0,5.0,85,0.00,,,0.00,meteohub,2013-01-17 11:17:00,
2013-01-17 06:22:00,31.8,27.9,29.78,SSW,200,1.0,8.0,85,0.00,,,0.00,meteohub,2013-01-17 11:22:00,
2013-01-17 06:27:00,31.6,27.7,29.78,SE,138,1.0,8.0,85,0.00,,,0.00,meteohub,2013-01-17 11:27:00,
2013-01-17 06:32:00,31.6,27.7,29.78,SSE,155,5.0,8.0,85,0.00,,,0.00,meteohub,2013-01-17 11:32:00,
2013-01-17 06:37:00,31.8,27.9,29.79,SW,219,1.0,7.0,85,0.00,,,0.00,meteohub,2013-01-17 11:37:00,
2013-01-17 06:42:00,31.8,27.5,29.80,South,184,1.0,7.0,84,0.00,,,0.00,meteohub,2013-01-17 11:42:00,
2013-01-17 06:47:00,31.8,27.9,29.80,WSW,238,0.0,7.0,85,0.00,,,0.00,meteohub,2013-01-17 11:47:00,
2013-01-17 06:52:00,31.8,27.9,29.80,SSE,162,2.0,7.0,85,0.00,,,0.00,meteohub,2013-01-17 11:52:00,
2013-01-17 06:57:00,31.8,27.9,29.80,West,271,2.0,7.0,85,0.00,,,0.00,meteohub,2013-01-17 11:57:00,
2013-01-17 07:02:00,31.8,27.9,29.81,SW,236,4.0,7.0,85,0.00,,,0.00,meteohub,2013-01-17 12:02:00,
2013-01-17 07:07:00,31.8,27.9,29.81,WSW,253,1.0,7.0,85,0.00,,,0.00,meteohub,2013-01-17 12:07:00,
2013-01-17 07:12:00,31.8,27.9,29.81,WNW,284,0.0,7.0,85,0.00,,,0.00,meteohub,2013-01-17 12:12:00,
2013-01-17 07:17:00,31.8,27.5,29.81,SSE,165,0.0,6.0,84,0.00,,,0.00,meteohub,2013-01-17 12:17:00,
2013-01-17 07:22:00,32.2,27.9,29.82,SSW,211,4.0,10.0,84,0.00,,,0.00,meteohub,2013-01-17 12:22:00,
2013-01-17 07:27:00,32.2,27.9,29.82,West,260,3.0,10.0,84,0.00,,,0.00,meteohub,2013-01-17 12:27:00,
2013-01-17 07:33:00,32.2,27.7,29.82,West,281,3.0,10.0,83,0.00,,,0.00,meteohub,2013-01-17 12:33:00,
2013-01-17 07:38:00,32.2,27.7,29.83,West,274,2.0,8.0,83,0.00,,,0.00,meteohub,2013-01-17 12:38:00,
2013-01-17 07:43:00,32.2,27.7,29.83,SSW,200,5.0,8.0,83,0.00,,,0.00,meteohub,2013-01-17 12:43:00,
2013-01-17 07:48:00,32.2,27.7,29.83,WSW,237,4.0,7.0,83,0.00,,,0.00,meteohub,2013-01-17 12:48:00,
2013-01-17 07:53:00,32.2,27.7,29.84,WSW,248,0.0,8.0,83,0.00,,,0.00,meteohub,2013-01-17 12:53:00,
2013-01-17 07:58:00,32.2,27.9,29.84,SSW,199,2.0,8.0,84,0.00,,,0.00,meteohub,2013-01-17 12:58:00,
2013-01-17 08:03:00,32.2,27.9,29.84,West,259,2.0,8.0,84,0.00,,,0.00,meteohub,2013-01-17 13:03:00,
2013-01-17 08:09:00,31.3,26.8,29.88,NW,318,11.0,11.0,83,0.00,,,0.00,meteohub,2013-01-17 13:09:00,
2013-01-17 08:14:00,28.9,25.0,29.89,NNW,335,6.0,15.0,85,0.00,,,0.00,meteohub,2013-01-17 13:14:00,
2013-01-17 08:19:00,27.3,24.3,29.90,NNW,341,6.0,16.0,88,0.00,,,0.00,meteohub,2013-01-17 13:19:00,
2013-01-17 08:24:00,26.6,23.5,29.91,NW,316,6.0,16.0,88,0.00,,,0.00,meteohub,2013-01-17 13:24:00,
2013-01-17 08:29:00,25.9,22.3,29.91,NNE,24,7.0,16.0,86,0.00,,,0.00,meteohub,2013-01-17 13:29:00,
2013-01-17 08:34:00,25.2,21.4,29.91,NW,304,3.0,11.0,85,0.00,,,0.00,meteohub,2013-01-17 13:34:00,
2013-01-17 08:39:00,25.0,21.4,29.92,SSW,212,0.0,12.0,86,0.00,,,0.00,meteohub,2013-01-17 13:39:00,
2013-01-17 08:44:00,25.0,20.8,29.92,NNW,338,0.0,12.0,84,0.00,,,0.00,meteohub,2013-01-17 13:44:00,
2013-01-17 08:49:00,25.2,21.0,29.92,West,264,2.0,12.0,84,0.00,,,0.00,meteohub,2013-01-17 13:49:00,
2013-01-17 08:55:00,25.3,20.1,29.93,NNW,347,3.0,9.0,80,0.00,,,0.00,meteohub,2013-01-17 13:55:00,
2013-01-17 09:00:00,25.3,19.8,29.94,NNW,341,1.0,9.0,79,0.00,,,0.00,meteohub,2013-01-17 14:00:00,
2013-01-17 09:05:00,25.5,19.9,29.94,NE,51,4.0,9.0,79,0.00,,,0.00,meteohub,2013-01-17 14:05:00,
2013-01-17 09:10:00,25.5,19.4,29.94,North,6,0.0,9.0,77,0.00,,,0.00,meteohub,2013-01-17 14:10:00,
2013-01-17 09:15:00,25.5,19.0,29.94,NW,321,2.0,11.0,76,0.00,,,0.00,meteohub,2013-01-17 14:15:00,
2013-01-17 09:20:00,25.5,19.0,29.95,ENE,68,0.0,11.0,76,0.00,,,0.00,meteohub,2013-01-17 14:20:00,
2013-01-17 09:25:00,25.7,19.2,29.96,NNW,336,4.0,6.0,76,0.00,,,0.00,meteohub,2013-01-17 14:25:00,
2013-01-17 09:30:00,25.9,19.0,29.96,WNW,288,4.0,6.0,75,0.00,,,0.00,meteohub,2013-01-17 14:30:00,
2013-01-17 09:36:00,25.9,18.7,29.96,ENE,68,4.0,6.0,74,0.00,,,0.00,meteohub,2013-01-17 14:36:00,
2013-01-17 09:41:00,25.5,17.8,29.97,North,349,8.0,14.0,72,0.00,,,0.00,meteohub,2013-01-17 14:41:00,
2013-01-17 09:46:00,25.3,17.6,29.97,NW,321,5.0,14.0,72,0.00,,,0.00,meteohub,2013-01-17 14:46:00,
2013-01-17 09:51:00,25.2,17.8,29.98,North,5,9.0,14.0,73,0.00,,,0.00,meteohub,2013-01-17 14:51:00,
2013-01-17 09:56:00,24.6,16.5,29.99,WNW,298,6.0,13.0,71,0.00,,,0.00,meteohub,2013-01-17 14:56:00,
2013-01-17 10:01:00,24.4,16.7,30.00,NW,322,10.0,13.0,72,0.00,,,0.00,meteohub,2013-01-17 15:01:00,
2013-01-17 10:06:00,23.9,16.2,29.99,NW,315,6.0,12.0,72,0.00,,,0.00,meteohub,2013-01-17 15:06:00,
2013-01-17 10:12:00,23.4,15.4,30.00,NNE,23,5.0,15.0,71,0.00,,,0.00,meteohub,2013-01-17 15:12:00,
2013-01-17 10:17:00,23.2,15.3,30.01,NW,324,5.0,15.0,71,0.00,,,0.00,meteohub,2013-01-17 15:17:00,
2013-01-17 10:22:00,23.0,14.4,30.01,NNW,341,10.0,15.0,69,0.00,,,0.00,meteohub,2013-01-17 15:22:00,
2013-01-17 10:27:00,22.8,13.8,30.01,NNW,338,5.0,14.0,68,0.00,,,0.00,meteohub,2013-01-17 15:27:00,
2013-01-17 10:32:00,22.6,12.9,30.01,NNW,335,5.0,14.0,66,0.00,,,0.00,meteohub,2013-01-17 15:32:00,
2013-01-17 10:37:00,22.3,12.4,30.02,WSW,250,1.0,14.0,65,0.00,,,0.00,meteohub,2013-01-17 15:37:00,
2013-01-17 10:42:00,21.9,11.7,30.03,West,278,7.0,14.0,64,0.00,,,0.00,meteohub,2013-01-17 15:42:00,
2013-01-17 10:47:00,21.4,11.5,30.03,NW,309,5.0,16.0,65,0.00,,,0.00,meteohub,2013-01-17 15:47:00,
2013-01-17 10:53:00,21.0,11.1,30.03,NW,316,2.0,16.0,65,0.00,,,0.00,meteohub,2013-01-17 15:53:00,
2013-01-17 10:58:00,21.0,11.5,30.04,NNW,344,3.0,17.0,66,0.00,,,0.00,meteohub,2013-01-17 15:58:00,
2013-01-17 11:03:00,20.8,10.6,30.04,NW,308,5.0,17.0,64,0.00,,,0.00,meteohub,2013-01-17 16:03:00,
2013-01-17 11:08:00,20.1,9.1,30.04,WNW,296,8.0,17.0,62,0.00,,,0.00,meteohub,2013-01-17 16:08:00,
2013-01-17 11:13:00,19.6,8.2,30.04,NW,320,7.0,15.0,61,0.00,,,0.00,meteohub,2013-01-17 16:13:00,
2013-01-17 11:18:00,18.9,6.4,30.05,WNW,294,7.0,15.0,58,0.00,,,0.00,meteohub,2013-01-17 16:18:00,
2013-01-17 11:23:00,18.3,6.1,30.05,NNW,339,8.0,16.0,58,0.00,,,0.00,meteohub,2013-01-17 16:23:00,
2013-01-17 11:28:00,18.1,5.0,30.06,NNW,338,4.0,16.0,56,0.00,,,0.00,meteohub,2013-01-17 16:28:00,
2013-01-17 11:34:00,18.1,5.0,30.06,NW,315,10.0,16.0,56,0.00,,,0.00,meteohub,2013-01-17 16:34:00,
2013-01-17 11:39:00,18.3,4.8,30.06,North,349,11.0,16.0,55,0.00,,,0.00,meteohub,2013-01-17 16:39:00,
2013-01-17 11:44:00,18.3,5.2,30.06,NW,321,5.0,16.0,56,0.00,,,0.00,meteohub,2013-01-17 16:44:00,
2013-01-17 11:49:00,18.1,4.3,30.07,NW,319,14.0,14.0,54,0.00,,,0.00,meteohub,2013-01-17 16:49:00,
2013-01-17 11:54:00,17.4,2.8,30.08,NNW,329,13.0,16.0,52,0.00,,,0.00,meteohub,2013-01-17 16:54:00,
2013-01-17 11:59:00,17.1,2.5,30.08,NNW,330,9.0,18.0,52,0.00,,,0.00,meteohub,2013-01-17 16:59:00,
2013-01-17 12:04:00,17.1,3.2,30.08,NNE,23,5.0,18.0,54,0.00,,,0.00,meteohub,2013-01-17 17:04:00,
2013-01-17 12:10:00,17.1,2.5,30.08,NW,309,2.0,18.0,52,0.00,,,0.00,meteohub,2013-01-17 17:10:00,
2013-01-17 12:15:00,16.9,1.9,30.08,NNW,342,3.0,16.0,51,0.00,,,0.00,meteohub,2013-01-17 17:15:00,
2013-01-17 12:20:00,16.7,2.5,30.08,NE,41,6.0,16.0,53,0.00,,,0.00,meteohub,2013-01-17 17:20:00,
2013-01-17 12:25:00,16.5,1.6,30.08,West,275,3.0,16.0,51,0.00,,,0.00,meteohub,2013-01-17 17:25:00,
2013-01-17 12:30:00,16.2,0.9,30.07,NNW,347,4.0,16.0,50,0.00,,,0.00,meteohub,2013-01-17 17:30:00,
2013-01-17 12:35:00,16.0,1.0,30.07,NNW,334,3.0,16.0,51,0.00,,,0.00,meteohub,2013-01-17 17:35:00,
2013-01-17 12:40:00,16.2,1.2,30.07,NNW,327,5.0,12.0,51,0.00,,,0.00,meteohub,2013-01-17 17:40:00,
2013-01-17 12:45:00,15.6,0.7,30.08,North,349,3.0,12.0,51,0.00,,,0.00,meteohub,2013-01-17 17:45:00,
2013-01-17 12:51:00,15.6,0.7,30.08,NE,51,4.0,12.0,51,0.00,,,0.00,meteohub,2013-01-17 17:51:00,
2013-01-17 12:56:00,15.8,0.5,30.09,North,349,6.0,14.0,50,0.00,,,0.00,meteohub,2013-01-17 17:56:00,
2013-01-17 13:01:00,15.6,-0.2,30.09,NNW,341,5.0,14.0,49,0.00,,,0.00,meteohub,2013-01-17 18:01:00,
2013-01-17 13:06:00,15.6,-0.6,30.09,NW,324,8.0,14.0,48,0.00,,,0.00,meteohub,2013-01-17 18:06:00,
2013-01-17 13:11:00,15.4,-0.4,30.10,NNW,330,4.0,13.0,49,0.00,,,0.00,meteohub,2013-01-17 18:11:00,
2013-01-17 13:16:00,15.4,-1.1,30.09,NNW,340,5.0,13.0,47,0.00,,,0.00,meteohub,2013-01-17 18:16:00,
2013-01-17 13:21:00,15.4,-0.8,30.09,NNW,335,2.0,13.0,48,0.00,,,0.00,meteohub,2013-01-17 18:21:00,
2013-01-17 13:26:00,16.0,0.1,30.09,NNE,27,4.0,13.0,49,0.00,,,0.00,meteohub,2013-01-17 18:26:00,
2013-01-17 13:32:00,16.0,-0.8,30.09,NNW,340,1.0,13.0,47,0.00,,,0.00,meteohub,2013-01-17 18:32:00,
2013-01-17 13:37:00,16.2,-0.6,30.09,WNW,302,7.0,13.0,47,0.00,,,0.00,meteohub,2013-01-17 18:37:00,
2013-01-17 13:42:00,16.2,-0.6,30.09,NW,311,6.0,13.0,47,0.00,,,0.00,meteohub,2013-01-17 18:42:00,
2013-01-17 13:47:00,15.8,-0.9,30.09,NW,316,4.0,11.0,47,0.00,,,0.00,meteohub,2013-01-17 18:47:00,
2013-01-17 13:52:00,16.2,0.0,30.10,NNW,329,6.0,11.0,48,0.00,,,0.00,meteohub,2013-01-17 18:52:00,
2013-01-17 13:57:00,16.2,0.0,30.09,NW,323,3.0,13.0,48,0.00,,,0.00,meteohub,2013-01-17 18:57:00,
2013-01-17 14:02:00,15.8,-1.3,30.10,North,8,4.0,14.0,46,0.00,,,0.00,meteohub,2013-01-17 19:02:00,
2013-01-17 14:07:00,15.6,-1.5,30.11,NW,316,10.0,14.0,46,0.00,,,0.00,meteohub,2013-01-17 19:07:00,
2013-01-17 14:12:00,15.4,-0.4,30.11,NW,321,2.0,14.0,49,0.00,,,0.00,meteohub,2013-01-17 19:12:00,
2013-01-17 14:17:00,15.8,0.5,30.11,NNW,347,3.0,13.0,50,0.00,,,0.00,meteohub,2013-01-17 19:17:00,
2013-01-17 14:22:00,15.6,-0.9,30.11,NNW,337,1.0,12.0,47,0.00,,,0.00,meteohub,2013-01-17 19:22:00,
2013-01-17 14:27:00,15.1,-2.0,30.11,NW,311,3.0,6.0,46,0.00,,,0.00,meteohub,2013-01-17 19:27:00,
2013-01-17 14:32:00,15.1,-0.6,30.11,NE,51,3.0,8.0,49,0.00,,,0.00,meteohub,2013-01-17 19:32:00,
2013-01-17 14:37:00,15.1,-0.2,30.11,NE,51,2.0,8.0,50,0.00,,,0.00,meteohub,2013-01-17 19:37:00,
2013-01-17 14:42:00,15.1,-0.6,30.11,NW,319,1.0,8.0,49,0.00,,,0.00,meteohub,2013-01-17 19:42:00,
2013-01-17 14:47:00,14.7,-0.9,30.11,ENE,60,1.0,4.0,49,0.00,,,0.00,meteohub,2013-01-17 19:47:00,
2013-01-17 14:53:00,14.4,-1.7,30.11,NE,34,1.0,7.0,48,0.00,,,0.00,meteohub,2013-01-17 19:53:00,
2013-01-17 14:58:00,13.8,-1.8,30.11,NW,323,1.0,7.0,49,0.00,,,0.00,meteohub,2013-01-17 19:58:00,
2013-01-17 15:03:00,13.6,-1.5,30.11,North,352,2.0,8.0,50,0.00,,,0.00,meteohub,2013-01-17 20:03:00,
2013-01-17 15:08:00,13.6,-2.0,30.11,NW,314,2.0,8.0,49,0.00,,,0.00,meteohub,2013-01-17 20:08:00,
2013-01-17 15:13:00,13.5,-1.7,30.11,NW,322,2.0,8.0,50,0.00,,,0.00,meteohub,2013-01-17 20:13:00,
2013-01-17 15:18:00,13.5,-1.3,30.10,North,5,0.0,9.0,51,0.00,,,0.00,meteohub,2013-01-17 20:18:00,
2013-01-17 15:23:00,13.3,-1.8,30.11,West,277,1.0,9.0,50,0.00,,,0.00,meteohub,2013-01-17 20:23:00,
2013-01-17 15:28:00,13.3,-1.8,30.10,NNW,333,2.0,9.0,50,0.00,,,0.00,meteohub,2013-01-17 20:28:00,
2013-01-17 15:34:00,12.9,-1.8,30.11,NE,38,2.0,7.0,51,0.00,,,0.00,meteohub,2013-01-17 20:34:00,
2013-01-17 15:39:00,12.7,-2.0,30.12,ENE,67,1.0,6.0,51,0.00,,,0.00,meteohub,2013-01-17 20:39:00,
2013-01-17 15:44:00,12.6,-1.7,30.12,NE,56,0.0,4.0,52,0.00,,,0.00,meteohub,2013-01-17 20:44:00,
2013-01-17 15:49:00,12.0,-2.6,30.12,NE,55,2.0,6.0,51,0.00,,,0.00,meteohub,2013-01-17 20:49:00,
2013-01-17 15:54:00,11.8,-2.4,30.12,East,84,0.0,6.0,52,0.00,,,0.00,meteohub,2013-01-17 20:54:00,
2013-01-17 15:59:00,11.8,-1.7,30.12,NE,51,1.0,6.0,54,0.00,,,0.00,meteohub,2013-01-17 20:59:00,
2013-01-17 16:04:00,11.8,-2.0,30.12,ESE,110,0.0,6.0,53,0.00,,,0.00,meteohub,2013-01-17 21:04:00,
2013-01-17 16:10:00,11.7,-2.2,30.12,North,6,1.0,6.0,53,0.00,,,0.00,meteohub,2013-01-17 21:10:00,
2013-01-17 16:15:00,11.5,-2.4,30.13,NNE,31,0.0,2.0,53,0.00,,,0.00,meteohub,2013-01-17 21:15:00,
2013-01-17 16:20:00,11.3,-2.6,30.13,ENE,58,0.0,4.0,53,0.00,,,0.00,meteohub,2013-01-17 21:20:00,
2013-01-17 16:25:00,11.1,-2.7,30.13,NE,34,1.0,4.0,53,0.00,,,0.00,meteohub,2013-01-17 21:25:00,
2013-01-17 16:30:00,10.9,-2.4,30.13,NE,56,2.0,3.0,54,0.00,,,0.00,meteohub,2013-01-17 21:30:00,
2013-01-17 16:35:00,10.8,-2.6,30.13,NE,50,0.0,4.0,54,0.00,,,0.00,meteohub,2013-01-17 21:35:00,
2013-01-17 16:40:00,10.4,-2.9,30.13,ENE,75,0.0,4.0,54,0.00,,,0.00,meteohub,2013-01-17 21:40:00,
2013-01-17 16:45:00,10.2,-2.7,30.13,ENE,76,0.0,3.0,55,0.00,,,0.00,meteohub,2013-01-17 21:45:00,
2013-01-17 16:51:00,10.0,-2.6,30.14,ENE,74,3.0,4.0,56,0.00,,,0.00,meteohub,2013-01-17 21:51:00,
2013-01-17 16:56:00,9.9,-2.7,30.14,ENE,60,3.0,4.0,56,0.00,,,0.00,meteohub,2013-01-17 21:56:00,
2013-01-17 17:01:00,9.9,-2.7,30.14,East,82,1.0,4.0,56,0.00,,,0.00,meteohub,2013-01-17 22:01:00,
2013-01-17 17:06:00,9.9,-2.4,30.14,NE,41,0.0,6.0,57,0.00,,,0.00,meteohub,2013-01-17 22:06:00,
2013-01-17 17:11:00,9.7,-2.6,30.14,East,89,0.0,6.0,57,0.00,,,0.00,meteohub,2013-01-17 22:11:00,
2013-01-17 17:16:00,9.7,-2.6,30.14,NE,50,2.0,6.0,57,0.00,,,0.00,meteohub,2013-01-17 22:16:00,
2013-01-17 17:21:00,9.7,-2.6,30.15,ENE,61,2.0,7.0,57,0.00,,,0.00,meteohub,2013-01-17 22:21:00,
2013-01-17 17:26:00,9.9,-2.4,30.14,NNE,13,1.0,7.0,57,0.00,,,0.00,meteohub,2013-01-17 22:26:00,
2013-01-17 17:32:00,9.9,-2.4,30.15,NE,49,5.0,7.0,57,0.00,,,0.00,meteohub,2013-01-17 22:32:00,
2013-01-17 17:37:00,9.9,-2.4,30.15,NE,53,0.0,6.0,57,0.00,,,0.00,meteohub,2013-01-17 22:37:00,
2013-01-17 17:42:00,9.7,-2.6,30.16,NNE,16,0.0,6.0,57,0.00,,,0.00,meteohub,2013-01-17 22:42:00,
2013-01-17 17:47:00,9.7,-2.6,30.16,NW,309,0.0,5.0,57,0.00,,,0.00,meteohub,2013-01-17 22:47:00,
2013-01-17 17:52:00,9.5,-2.4,30.16,NNW,338,1.0,3.0,58,0.00,,,0.00,meteohub,2013-01-17 22:52:00,
2013-01-17 17:57:00,9.3,-2.9,30.17,NW,312,1.0,4.0,57,0.00,,,0.00,meteohub,2013-01-17 22:57:00,
2013-01-17 18:02:00,9.3,-2.4,30.17,NNE,22,1.0,4.0,58,0.00,,,0.00,meteohub,2013-01-17 23:02:00,
2013-01-17 18:07:00,9.1,-2.6,30.17,West,275,0.0,4.0,58,0.00,,,0.00,meteohub,2013-01-17 23:07:00,
2013-01-17 18:12:00,9.1,-2.6,30.16,North,354,0.0,4.0,58,0.00,,,0.00,meteohub,2013-01-17 23:12:00,
2013-01-17 18:17:00,9.0,-2.7,30.17,North,359,0.0,3.0,58,0.00,,,0.00,meteohub,2013-01-17 23:17:00,
2013-01-17 18:22:00,8.8,-2.6,30.17,NE,44,0.0,4.0,59,0.00,,,0.00,meteohub,2013-01-17 23:22:00,
2013-01-17 18:27:00,8.8,-2.6,30.17,NE,51,0.0,4.0,59,0.00,,,0.00,meteohub,2013-01-17 23:27:00,
2013-01-17 18:32:00,8.8,-1.8,30.17,NNW,331,0.0,4.0,61,0.00,,,0.00,meteohub,2013-01-17 23:32:00,
2013-01-17 18:37:00,8.4,-2.9,30.17,ENE,60,0.0,4.0,59,0.00,,,0.00,meteohub,2013-01-17 23:37:00,
2013-01-17 18:42:00,8.4,-2.9,30.18,NNW,334,2.0,4.0,59,0.00,,,0.00,meteohub,2013-01-17 23:42:00,
2013-01-17 18:47:00,8.4,-3.3,30.18,NW,324,3.0,4.0,58,0.00,,,0.00,meteohub,2013-01-17 23:47:00,
2013-01-17 18:52:00,8.4,-2.9,30.18,NNW,334,0.0,5.0,59,0.00,,,0.00,meteohub,2013-01-17 23:52:00,
2013-01-17 18:57:00,8.2,-3.1,30.18,ENE,71,0.0,5.0,59,0.00,,,0.00,meteohub,2013-01-17 23:57:00,
2013-01-17 19:02:00,8.2,-2.7,30.18,WNW,290,0.0,7.0,60,0.00,,,0.00,meteohub,2013-01-18 00:02:00,
2013-01-17 19:08:00,8.2,-2.7,30.18,NW,306,0.0,7.0,60,0.00,,,0.00,meteohub,2013-01-18 00:08:00,
2013-01-17 19:13:00,8.2,-2.7,30.18,NE,53,0.0,2.0,60,0.00,,,0.00,meteohub,2013-01-18 00:13:00,
2013-01-17 19:18:00,8.2,-2.4,30.18,WNW,301,0.0,4.0,61,0.00,,,0.00,meteohub,2013-01-18 00:18:00,
2013-01-17 19:23:00,8.2,-2.4,30.17,NW,307,0.0,4.0,61,0.00,,,0.00,meteohub,2013-01-18 00:23:00,
2013-01-17 19:28:00,8.1,-2.9,30.17,NNW,335,0.0,4.0,60,0.00,,,0.00,meteohub,2013-01-18 00:28:00,
2013-01-17 19:33:00,8.1,-2.9,30.17,NNW,336,0.0,4.0,60,0.00,,,0.00,meteohub,2013-01-18 00:33:00,
2013-01-17 19:38:00,8.1,-2.2,30.17,NNW,348,0.0,4.0,62,0.00,,,0.00,meteohub,2013-01-18 00:38:00,
2013-01-17 19:44:00,7.9,-2.7,30.18,NNW,343,0.0,4.0,61,0.00,,,0.00,meteohub,2013-01-18 00:44:00,
2013-01-17 19:49:00,7.9,-2.7,30.18,NW,314,2.0,4.0,61,0.00,,,0.00,meteohub,2013-01-18 00:49:00,
2013-01-17 19:54:00,7.5,-3.5,30.19,NNW,345,0.0,6.0,60,0.00,,,0.00,meteohub,2013-01-18 00:54:00,
2013-01-17 19:59:00,7.5,-2.7,30.19,ENE,59,0.0,6.0,62,0.00,,,0.00,meteohub,2013-01-18 00:59:00,
2013-01-17 20:04:00,7.5,-2.7,30.19,NNW,333,1.0,6.0,62,0.00,,,0.00,meteohub,2013-01-18 01:04:00,
2013-01-17 20:09:00,7.3,-3.3,30.19,ENE,61,0.0,2.0,61,0.00,,,0.00,meteohub,2013-01-18 01:09:00,
2013-01-17 20:14:00,7.3,-3.3,30.19,NE,45,1.0,3.0,61,0.00,,,0.00,meteohub,2013-01-18 01:14:00,
2013-01-17 20:20:00,7.3,-2.9,30.19,ENE,58,0.0,3.0,62,0.00,,,0.00,meteohub,2013-01-18 01:20:00,
2013-01-17 20:25:00,7.2,-3.1,30.20,NNE,25,0.0,3.0,62,0.00,,,0.00,meteohub,2013-01-18 01:25:00,
2013-01-17 20:30:00,7.2,-2.7,30.20,NNW,333,0.0,4.0,63,0.00,,,0.00,meteohub,2013-01-18 01:30:00,
2013-01-17 20:35:00,7.2,-2.7,30.19,North,350,0.0,4.0,63,0.00,,,0.00,meteohub,2013-01-18 01:35:00,
2013-01-17 20:40:00,7.2,-2.7,30.18,NE,36,0.0,3.0,63,0.00,,,0.00,meteohub,2013-01-18 01:40:00,
2013-01-17 20:45:00,7.0,-3.3,30.19,NE,37,1.0,2.0,62,0.00,,,0.00,meteohub,2013-01-18 01:45:00,
2013-01-17 20:50:00,7.0,-2.9,30.19,North,8,0.0,4.0,63,0.00,,,0.00,meteohub,2013-01-18 01:50:00,
2013-01-17 20:56:00,7.0,-3.3,30.18,NW,310,4.0,5.0,62,0.00,,,0.00,meteohub,2013-01-18 01:56:00,
2013-01-17 21:01:00,6.8,-4.2,30.19,NW,326,3.0,5.0,60,0.00,,,0.00,meteohub,2013-01-18 02:01:00,
2013-01-17 21:06:00,6.6,-4.7,30.19,NNE,18,1.0,7.0,59,0.00,,,0.00,meteohub,2013-01-18 02:06:00,
2013-01-17 21:11:00,6.4,-4.9,30.19,NNW,342,1.0,7.0,59,0.00,,,0.00,meteohub,2013-01-18 02:11:00,
2013-01-17 21:16:00,6.4,-4.5,30.19,NNE,27,0.0,7.0,60,0.00,,,0.00,meteohub,2013-01-18 02:16:00,
2013-01-17 21:21:00,6.3,-4.7,30.19,SW,229,0.0,5.0,60,0.00,,,0.00,meteohub,2013-01-18 02:21:00,
2013-01-17 21:26:00,6.3,-4.7,30.19,WNW,294,1.0,5.0,60,0.00,,,0.00,meteohub,2013-01-18 02:26:00,
2013-01-17 21:31:00,6.3,-4.7,30.19,NNW,340,1.0,5.0,60,0.00,,,0.00,meteohub,2013-01-18 02:31:00,
2013-01-17 21:37:00,6.3,-4.4,30.18,ENE,67,0.0,3.0,61,0.00,,,0.00,meteohub,2013-01-18 02:37:00,
2013-01-17 21:42:00,6.3,-4.0,30.18,NE,53,1.0,3.0,62,0.00,,,0.00,meteohub,2013-01-18 02:42:00,
2013-01-17 21:47:00,6.3,-4.0,30.18,ESE,107,0.0,4.0,62,0.00,,,0.00,meteohub,2013-01-18 02:47:00,
2013-01-17 21:52:00,6.1,-4.2,30.18,NE,49,0.0,4.0,62,0.00,,,0.00,meteohub,2013-01-18 02:52:00,
2013-01-17 21:57:00,6.1,-3.8,30.18,NNE,21,1.0,4.0,63,0.00,,,0.00,meteohub,2013-01-18 02:57:00,
2013-01-17 22:02:00,6.1,-4.5,30.17,NE,51,1.0,5.0,61,0.00,,,0.00,meteohub,2013-01-18 03:02:00,
2013-01-17 22:07:00,5.9,-4.4,30.18,NNE,33,0.0,8.0,62,0.00,,,0.00,meteohub,2013-01-18 03:07:00,
2013-01-17 22:12:00,5.7,-4.9,30.19,East,97,1.0,8.0,61,0.00,,,0.00,meteohub,2013-01-18 03:12:00,
2013-01-17 22:17:00,5.7,-4.2,30.19,NE,38,1.0,8.0,63,0.00,,,0.00,meteohub,2013-01-18 03:17:00,
2013-01-17 22:22:00,5.7,-4.5,30.18,NW,312,0.0,7.0,62,0.00,,,0.00,meteohub,2013-01-18 03:22:00,
2013-01-17 22:27:00,5.7,-4.2,30.18,NE,46,0.0,4.0,63,0.00,,,0.00,meteohub,2013-01-18 03:27:00,
2013-01-17 22:32:00,5.7,-4.2,30.19,NW,319,1.0,2.0,63,0.00,,,0.00,meteohub,2013-01-18 03:32:00,
2013-01-17 22:37:00,5.7,-4.2,30.19,NNE,23,0.0,2.0,63,0.00,,,0.00,meteohub,2013-01-18 03:37:00,
2013-01-17 22:42:00,5.5,-4.7,30.19,NE,51,1.0,5.0,62,0.00,,,0.00,meteohub,2013-01-18 03:42:00,
2013-01-17 22:47:00,5.5,-4.4,30.18,NE,41,4.0,5.0,63,0.00,,,0.00,meteohub,2013-01-18 03:47:00,
2013-01-17 22:52:00,5.5,-4.0,30.18,ENE,70,1.0,6.0,64,0.00,,,0.00,meteohub,2013-01-18 03:52:00,
2013-01-17 22:58:00,5.5,-4.0,30.17,ENE,77,5.0,6.0,64,0.00,,,0.00,meteohub,2013-01-18 03:58:00,
2013-01-17 23:03:00,5.4,-4.5,30.17,NE,36,0.0,6.0,63,0.00,,,0.00,meteohub,2013-01-18 04:03:00,
2013-01-17 23:08:00,5.4,-4.5,30.17,NE,40,1.0,6.0,63,0.00,,,0.00,meteohub,2013-01-18 04:08:00,
2013-01-17 23:13:00,5.4,-4.2,30.17,NE,46,1.0,6.0,64,0.00,,,0.00,meteohub,2013-01-18 04:13:00,
2013-01-17 23:18:00,5.2,-5.1,30.17,West,281,0.0,6.0,62,0.00,,,0.00,meteohub,2013-01-18 04:18:00,
2013-01-17 23:23:00,5.2,-4.7,30.17,ENE,58,3.0,5.0,63,0.00,,,0.00,meteohub,2013-01-18 04:23:00,
2013-01-17 23:28:00,5.2,-5.1,30.17,NE,48,0.0,5.0,62,0.00,,,0.00,meteohub,2013-01-18 04:28:00,
2013-01-17 23:34:00,5.2,-5.1,30.17,ENE,60,0.0,5.0,62,0.00,,,0.00,meteohub,2013-01-18 04:34:00,
2013-01-17 23:39:00,5.2,-5.1,30.16,NE,38,1.0,6.0,62,0.00,,,0.00,meteohub,2013-01-18 04:39:00,
2013-01-17 23:44:00,5.2,-5.1,30.18,NE,39,1.0,6.0,62,0.00,,,0.00,meteohub,2013-01-18 04:44:00,
2013-01-17 23:49:00,5.2,-5.3,30.17,NE,45,0.0,6.0,61,0.00,,,0.00,meteohub,2013-01-18 04:49:00,
2013-01-17 23:54:00,5.2,-5.1,30.18,ENE,68,0.0,6.0,62,0.00,,,0.00,meteohub,2013-01-18 04:54:00,
2013-01-17 23:59:00,5.2,-4.7,30.17,North,9,0.0,6.0,63,0.00,,,0.00,meteohub,2013-01-18 04:59:00,